Flag for Germany Weather past 2 weeks in Gladbeck, North Rhine-Westphalia, Germany

Now
46 °F

Drizzle. Low clouds.


Feels Like: 41 °F
Forecast: 46 / 53 °F
Wind: 9 mph from Southwest

Location: Duesseldorf

Current Time: Dec 21, 2014 at 8:39:19 PM

Latest Report: Dec 21, 2014 at 8:00 PM


Visibility: 8 mi

Pressure: 30.26 "Hg

Humidity: 92%

Dew point: 44 °F

Location of GladbeckLocation

Historic Weather in Gladbeck — Graph

°F

Gladbeck temperature yesterday

Maximum temperature yesterday: 46 °F (at 5:00 PM)
Minimum temperature yesterday: 39 °F (at 7:00 AM)
Average temperature yesterday: 43 °F

Past Weeks' High & Low Weather Summary

 TemperatureHumidityPressure
High55 °F (Dec 18, 7:00 PM)100% (Dec 14, 6:00 AM)30.41 "Hg (Dec 14, 6:00 AM)
Low30 °F (Dec 14, 6:00 AM)65% (Dec 7, 3:00 PM)29.41 "Hg (Dec 12, 1:00 PM)
Average42 °F87%29.98 "Hg
* Reported Dec 6 7:00 PM — Dec 21 7:00 PM, Gladbeck, Weather by CustomWeather, © 2014

Note: Actual official high and low records may vary slightly from our data, if they occured in-between our weather recording intervals... More about our weather records

Advertising

Gladbeck weather history for previous 24 hours

 ConditionsComfort  
Time TempWeatherWind HumidityBarometerVisibility
7:00 PM
Dec 21
45 °FDrizzle. Low clouds.8 mph93%30.27 "Hg5 mi
6:00 PM45 °FDrizzle. Low clouds.8 mph95%30.27 "Hg4 mi
5:00 PM45 °FDrizzle. Overcast.9 mph89%30.28 "Hg7 mi
3:00 PM45 °FLight rain. Overcast.8 mph83%30.32 "Hg7 mi
2:00 PM45 °FLight rain. Overcast.8 mph81%30.34 "Hg16 mi
1:00 PM45 °FOvercast.8 mph83%30.37 "Hg16 mi
12:00 PM44 °FOvercast.8 mph83%30.38 "Hg15 mi
11:00 AM43 °FOvercast.8 mph85%30.41 "Hg11 mi
9:00 AM41 °FLow clouds.7 mph92%30.41 "Hg10 mi
8:00 AM38 °FPassing clouds.6 mph94%30.41 "Hg9 mi
7:00 AM38 °FPassing clouds.5 mph94%30.41 "Hg9 mi
6:00 AM40 °FQuite cool.5 mph92%30.40 "HgN/A
5:00 AM41 °FOvercast.5 mph89%30.40 "Hg12 mi
3:00 AM41 °FPassing clouds.3 mph86%30.40 "Hg16 mi
2:00 AM41 °FPassing clouds.6 mph86%30.37 "Hg16 mi
1:00 AM41 °FPassing clouds.5 mph86%30.36 "Hg19 mi
12:00 AM42 °FPassing clouds.5 mph83%30.34 "Hg16 mi
11:00 PM
Dec 20
41 °FPassing clouds.5 mph84%30.32 "Hg16 mi
9:00 PM43 °FSprinkles. Overcast.5 mph80%30.27 "Hg12 mi
8:00 PM43 °FPassing clouds.6 mph79%30.23 "Hg31 mi
Weather by CustomWeather, © 2014

See weather overviewHow to use our weather pages